Tracking 30990 objects as of 8-Jul-2025
HD Live streaming from Space Station
objects crossing your sky now

STARLINK-5186

Track STARLINK-5186 now!
10-day predictions
STARLINK-5186 is classified as:


NORAD ID: 54177
Int'l Code: 2022-141W
Perigee: 546.0 km
Apogee: 547.8 km
Inclination: 53.2 °
Period: 95.4 minutes
Semi major axis: 6917 km
RCS: Unknown
Launch date: October 28, 2022
Source: United States (US)
Launch site: AIR FORCE WESTERN TEST RANGE (AFWTR)
Your satellite tracking list
Your tracking list is empty




NASA's NSSDC Master Catalog

Two Line Element Set (TLE):
1 54177U 22141W   25188.83387550 -.00000574  00000-0 -17961-4 0  9993
2 54177  53.2187  23.2526 0001261  85.8699 274.2437 15.08836858148898
Source of the keplerian elements: AFSPC